Weather observations for the past three days for
Mena, Mena Intermountain Municipal Airport
Imperial (Metric)
Date Time (cdt) Wind (mph) Vis. (mi.) Weather Sky Cond. Temperature (ºF) Relative Humidity Wind Chill (°F) Heat Index (°F) Pressure Precipitation (in)
Air Dwpt 6 hour altimeter (in) sea level (mb) 1 hr 3 hr 6 hr
Max. Min.
09 12:15 NE 5 10.00 Partly Cloudy SCT036 77.2 63.3 62% 79 29.86 0.0
09 11:55 NE 3 10.00 A Few Clouds FEW031 77.2 63.7 63% 79 29.86 0.0
09 11:35 Calm 10.00 Partly Cloudy SCT031 76.5 62.6 62% 78 29.86 0.0
09 11:15 Vrbl 3 10.00 Fair CLR 75.6 62.6 64% 78 29.86 0.0
09 10:55 Vrbl 6 10.00 Fair CLR 75 63.1 67% 77 29.86 0.0
09 10:35 Vrbl 3 10.00 Fair CLR 73.9 62.6 68% 29.86 0.0
09 10:15 Vrbl 3 10.00 Fair CLR 73.4 63.1 70% 29.86 0.0
09 09:55 NW 3 10.00 Fair CLR 72.1 63.1 73% 29.86 0.0
09 09:35 Vrbl 3 10.00 Fair CLR 71.4 62.4 73% 29.86 0.0
09 09:15 NW 3 10.00 Fair CLR 70 62.1 76% 29.87 0.0
09 08:55 Calm 10.00 Fair CLR 68.9 61.5 77% 29.87 0.0
09 08:35 Calm 10.00 Fair CLR 66.7 60.6 81% 29.87 0.0
09 08:15 Calm 10.00 Fair CLR 65.3 60.3 84% 29.87 0.0
09 07:55 Calm 10.00 Fair CLR 61.9 59.7 93% 29.86 0.0
09 07:35 Calm 10.00 Fair CLR 60.6 59 94% 29.86 0.0
09 07:15 Calm 10.00 Fair CLR 57.7 57.4 99% 29.85 0.0
09 06:55 W 3 10.00 Fair CLR 56.1 56.1 64 54.7 100% 29.84 0.0
09 06:35 Calm 7.00 Fair CLR 55.2 55.2 100% 29.83 0.0
09 06:15 Calm 9.00 Fair CLR 55.4 55.4 100% 29.82 0.0
09 05:55 Calm 10.00 Fair CLR 56.8 56.8 100% 29.82 0.0
09 05:35 W 3 10.00 Fair CLR 56.8 56.8 100% 29.82 0.0
09 05:15 SW 3 10.00 Fair CLR 57.2 57.2 100% 29.82 0.0
09 04:55 Calm 10.00 Fair CLR 57.6 57.4 99% 29.82 0.0
09 04:35 Calm 10.00 Fair CLR 58.1 57.4 97% 29.81 0.0
09 04:15 W 3 10.00 Fair CLR 60.3 57.9 92% 29.81 0.0
09 03:55 W 3 10.00 Fair CLR 60.1 57.9 93% 29.82 0.0
09 03:35 W 5 10.00 Fair CLR 60.6 57.9 91% 29.82 0.0
09 03:15 Calm 10.00 Fair CLR 58.8 57.7 96% 29.82 0.0
09 02:55 W 5 10.00 Fair CLR 60.8 58.3 91% 29.82 0.0
09 02:35 W 5 10.00 Fair CLR 61.2 57.9 89% 29.83 0.0
09 02:15 W 3 10.00 Fair CLR 62.8 57.7 84% 29.83 0.0
09 01:55 W 3 10.00 Fair CLR 60.4 58.5 93% 29.85 0.0
09 01:35 Calm 10.00 Fair CLR 60.8 58.3 91% 29.85 0.0
09 01:15 W 3 10.00 Fair CLR 60.4 58.8 94% 29.86 0.0
09 00:55 W 3 10.00 Fair CLR 59.9 59 72.7 59.9 97% 29.85 0.0
09 00:35 Calm 10.00 A Few Clouds FEW060 61 59 93% 29.85 0.0
09 00:15 Calm 10.00 Partly Cloudy SCT060 61.5 59.2 92% 29.86 0.0
08 23:55 Calm 10.00 Mostly Cloudy BKN060 62.6 59.9 91% 29.87 0.0
08 23:35 Calm 10.00 Overcast FEW044 OVC060 62.2 60.3 93% 29.88 0.0
08 23:15 Calm 10.00 Mostly Cloudy SCT043 BKN055 62.8 59.7 90% 29.88 0.0
08 22:55 Calm 10.00 Mostly Cloudy FEW043 SCT055 BKN170 63.1 59.9 89% 29.88 0.0
08 22:35 Calm 10.00 Mostly Cloudy FEW150 BKN170 62.8 59.5 89% 29.86 0.0
08 22:15 Calm 10.00 A Few Clouds FEW150 62.6 59.5 90% 29.85 0.0
08 21:55 Calm 10.00 A Few Clouds FEW065 63 59.5 89% 29.87 0.0
08 21:35 Calm 10.00 Partly Cloudy SCT065 63.7 59.2 85% 29.86 0.0
08 21:15 Calm 10.00 Partly Cloudy SCT070 63.1 59.5 88% 29.84 0.0
08 20:55 Calm 10.00 A Few Clouds FEW075 62.6 58.6 87% 29.82 0.0
08 20:35 Calm 9.00 Fair CLR 63.1 58.6 85% 29.8 0.0
08 20:15 Calm 10.00 Fair CLR 66.4 58.1 75% 29.8 0.0
08 19:55 Calm 10.00 Fair CLR 68.7 58.3 69% 29.79 0.0
08 19:35 Calm 10.00 Fair CLR 70 59.2 69% 29.78 0.0
08 19:15 Calm 10.00 Fair CLR 71.6 58.3 63% 29.78 0.0
08 18:55 Calm 10.00 Fair CLR 73.4 59.2 75.7 70.3 61% 29.79 0.0
08 18:35 Calm 10.00 Fair CLR 73.6 58.5 59% 29.79 0.0
08 18:15 Vrbl 3 10.00 Fair CLR 74.7 58.1 56% 29.8 0.0
08 17:55 Vrbl 6 10.00 Fair CLR 74.7 56.8 54% 29.8 0.0
08 17:35 Calm 10.00 Fair CLR 75 56.3 52% 78 29.8 0.0
08 17:15 Calm 10.00 Fair CLR 75.4 57 53% 78 29.79 0.0
08 16:55 Vrbl 5 10.00 Fair CLR 75.2 56.5 52% 78 29.79 0.0
08 16:35 Calm 10.00 Fair CLR 75.7 56.1 51% 78 29.8 0.0
08 16:15 Vrbl 3 10.00 Fair CLR 74.7 55.4 51% 29.81 0.0
08 15:55 Calm 10.00 Fair CLR 74.8 55.9 52% 29.82 0.0
08 15:35 Calm 10.00 Fair CLR 75 57 54% 78 29.82 0.0
08 15:15 Vrbl 3 10.00 Fair CLR 74.8 56.7 53% 29.84 0.0
08 14:55 W 5 10.00 Fair CLR 74.1 55.8 53% 29.85 0.0
08 14:35 Vrbl 5 10.00 Fair CLR 73.2 54.5 52% 29.86 0.0
08 14:15 Vrbl 5 10.00 Fair CLR 73.6 55.6 53% 29.86 0.0
08 13:55 W 7 10.00 A Few Clouds FEW041 72.3 55 55% 29.88 0.0
08 13:35 Vrbl 3 10.00 A Few Clouds FEW041 72.1 55.4 56% 29.89 0.0
08 13:15 Vrbl 5 10.00 A Few Clouds FEW041 71.2 55.2 57% 29.9 0.0
08 12:55 Vrbl 5 10.00 Fair CLR 70.5 53.6 71.1 44.8 55% 29.91 0.0
08 12:35 SW 6 10.00 Fair CLR 70.9 54.5 56% 29.92 0.0
08 12:15 Vrbl 3 10.00 Fair CLR 70 53.6 56% 29.93 0.0
08 11:55 Calm 10.00 Fair CLR 69.8 53.6 57% 29.94 0.0
08 11:35 Vrbl 6 10.00 Fair CLR 68.4 53.6 59% 29.94 0.0
08 11:15 Vrbl 6 10.00 Fair CLR 68.4 52.7 58% 29.94 0.0
08 10:55 Vrbl 3 10.00 Fair CLR 67.3 52 58% 29.95 0.0
08 10:35 Calm 10.00 Fair CLR 67.1 54.1 63% 29.95 0.0
08 10:15 Calm 10.00 Fair CLR 65.8 53.6 65% 29.96 0.0
08 09:55 Calm 10.00 Fair CLR 65.1 53.8 67% 29.97 0.0
08 09:35 Calm 10.00 Fair CLR 64 53.4 69% 29.97 0.0
08 09:15 Vrbl 3 10.00 Fair CLR 63.3 54.1 72% 29.99 0.0
08 08:55 Calm 10.00 Fair CLR 58.3 55.2 90% 30 0.0
08 08:35 Calm 10.00 Fair CLR 56.1 53.6 91% 30 0.0
08 08:15 Calm 10.00 Fair CLR 54.1 52.7 95% 30 0.0
08 07:55 Calm 10.00 Fair CLR 51.1 51.1 100% 29.99 0.0
08 07:35 Calm 10.00 Fair CLR 49.1 49.1 100% 29.99 0.0
08 07:15 Calm 10.00 Fair CLR 46.6 46.6 100% 29.99 0.0
08 06:55 Calm 6.00 Fog/Mist CLR 44.8 44.8 51.3 44.1 100% 29.98 0.0
08 06:35 Calm 9.00 Fair CLR 44.1 44.1 100% 29.98 0.0
08 06:15 Calm 9.00 Fair CLR 44.4 44.4 100% 29.99 0.0
08 05:55 Calm 10.00 A Few Clouds FEW230 45.1 45.1 100% 29.98 0.0
08 05:35 Calm 10.00 Fair CLR 44.8 44.8 100% 29.98 0.0
08 05:15 Calm 10.00 Fair CLR 45.3 45.3 100% 29.99 0.0
08 04:55 Calm 9.00 Fair CLR 45.9 45.9 100% 29.99 0.0
08 04:35 Calm 10.00 Fair CLR 45.9 45.9 100% 29.98 0.0
08 04:15 Calm 9.00 Fair CLR 45.3 45.3 100% 29.98 0.0
08 03:55 Calm 10.00 Fair CLR 46.6 46.6 100% 29.98 0.0
08 03:35 Calm 10.00 Fair CLR 46.6 46.6 100% 29.98 0.0
08 03:15 Calm 10.00 Fair CLR 47.1 47.1 100% 29.99 0.0
08 02:55 Calm 10.00 Fair CLR 47.5 47.5 100% 29.98 0.0
08 02:35 Calm 10.00 Fair CLR 48.9 48.9 100% 29.99 0.0
08 02:15 Calm 9.00 Fair CLR 48.4 48.4 100% 29.99 0.0
08 01:55 Calm 8.00 Fair CLR 49.1 49.1 100% 29.99 0.0
08 01:35 Calm 9.00 Fair CLR 50.2 50.2 100% 29.99 0.0
08 01:15 Calm 9.00 Fair CLR 50.5 50.5 100% 29.99 0.0
08 00:55 Calm 10.00 Fair CLR 52.2 52.2 68.5 52.2 100% 29.99 0.0
08 00:35 Calm 10.00 Fair CLR 52.5 52.5 100% 30 0.0
08 00:15 Calm 10.00 Fair CLR 53.2 52.7 98% 29.99 0.0
07 23:55 Calm 10.00 Fair CLR 53.8 52.5 96% 30 0.0
07 23:35 Calm 10.00 Fair CLR 54.9 53.1 94% 29.99 0.0
07 23:15 Calm 10.00 Fair CLR 55 53.1 93% 29.99 0.0
07 22:55 Calm 10.00 Fair CLR 55.2 53.2 93% 30 0.0
07 22:15 Calm 10.00 Fair CLR 55.6 53.2 92% 29.99 0.0
07 21:55 Calm 10.00 Fair CLR 57.2 53.2 87% 29.99 0.0
07 21:35 Calm 10.00 Fair CLR 55.8 53.4 92% 29.98 0.0
07 21:15 Calm 10.00 Fair CLR 57.4 53.8 88% 29.98 0.0
07 20:55 Calm 10.00 Fair CLR 57.9 54.5 88% 29.97 0.0
07 20:35 Calm 10.00 Fair CLR 59 54.1 84% 29.97 0.0
07 20:15 Calm 10.00 Fair CLR 60.1 54.7 82% 29.96 0.0
07 19:55 Calm 10.00 Fair CLR 64.2 53.4 68% 29.96 0.0
07 19:35 SE 3 10.00 Fair CLR 66.6 51.8 59% 29.96 0.0
07 19:15 SE 3 10.00 Fair CLR 67.5 51.4 57% 29.95 0.0
07 18:55 SE 5 10.00 Fair CLR 68.5 51.1 71.2 65.1 54% 29.96 0.0
07 18:35 Calm 10.00 Fair CLR 69.1 49.8 50% 29.95 0.0
07 18:15 Vrbl 3 10.00 Fair CLR 70 49.6 49% 29.95 0.0
07 17:55 E 6 10.00 A Few Clouds FEW055 70.7 49.3 47% 29.96 0.0
07 17:35 Calm 10.00 Partly Cloudy SCT055 70 47.8 45% 29.96 0.0
07 17:15 Vrbl 3 10.00 A Few Clouds FEW055 70.9 48.2 45% 29.96 0.0
07 16:55 Calm 10.00 Fair CLR 69.8 46.4 43% 29.96 0.0
07 16:35 Vrbl 5 10.00 Fair CLR 70.3 49.1 47% 29.97 0.0
07 16:15 Calm 10.00 Fair CLR 69.6 48.6 47% 29.97 0.0
07 15:15 Vrbl 3 10.00 Fair CLR 69.1 48.4 48% 29.99 0.0
07 14:55 Vrbl 5 10.00 A Few Clouds FEW050 68 47.7 48% 30 0.0
07 14:35 Vrbl 3 10.00 Partly Cloudy FEW050 SCT370 67.5 47.5 49% 30 0.0
07 14:15 Calm 10.00 Partly Cloudy FEW048 SCT350 67.3 47.1 49% 30.01 0.0
07 13:55 Vrbl 3 10.00 A Few Clouds FEW047 66.2 47.5 51% 30.02 0.0
07 13:35 N 3 10.00 Fair CLR 65.7 46.8 51% 30.03 0.0
07 13:15 E 5 10.00 Mostly Cloudy SCT046 BKN310 BKN340 65.7 47.5 52% 30.03 0.0
07 12:55 Vrbl 3 10.00 Partly Cloudy SCT045 65.1 47.3 65.1 44.6 53% 30.05 0.0
07 12:35 NE 5 10.00 Fair CLR 63.9 46 53% 30.06 0.0
07 12:15 SE 5 10.00 A Few Clouds FEW042 64.2 47.1 54% 30.07 0.0
07 11:55 Vrbl 3 10.00 A Few Clouds FEW042 62.1 45.9 56% 30.08 0.0
07 11:35 Calm 10.00 Fair CLR 62.2 45.7 55% 30.08 0.0
07 11:15 E 5 10.00 Fair CLR 61.5 46.2 57% 30.09 0.0
07 10:55 Calm 10.00 Fair CLR 60.3 45.9 59% 30.1 0.0
07 10:35 SE 6 10.00 Fair CLR 60.4 47.1 62% 30.1 0.0
07 10:15 Vrbl 5 10.00 Fair CLR 58.8 47.1 65% 30.1 0.0
07 09:55 Calm 9.00 Fair CLR 58.3 46.8 66% 30.11 0.0
07 09:35 Calm 9.00 Fair CLR 58.3 47.8 68% 30.11 0.0
07 09:15 E 3 9.00 Fair CLR 57 49.1 75% 30.1 0.0
07 08:55 E 3 9.00 Fair CLR 55.8 48.7 77% 30.09 0.0
07 08:35 Calm 9.00 Fair CLR 54.3 48.4 80% 30.09 0.0
07 08:15 Calm 9.00 Fair CLR 52.2 48.2 86% 30.09 0.0
07 07:55 Calm 10.00 Fair CLR 51.3 48.9 92% 30.09 0.0
07 07:35 Calm 10.00 Fair CLR 48.9 48.7 99% 30.08 0.0
07 07:15 S 3 8.00 Fair CLR 46.2 46.2 100% 30.07 0.0
07 06:55 Calm 6.00 Fog/Mist CLR 44.1 44.1 52.2 42.6 100% 30.05 0.0
07 06:35 Calm 6.00 Fog/Mist CLR 42.8 42.8 100% 30.05 0.0
07 06:15 Calm 6.00 Fog/Mist CLR 43.3 43.3 100% 30.05 0.0
07 05:55 Calm 4.00 Fog/Mist CLR 42.6 42.6 100% 30.04 0.0
07 05:35 Calm 8.00 Fair CLR 43.3 43.3 100% 30.04 0.0
07 05:15 Calm 8.00 Fair CLR 44.4 44.4 100% 30.05 0.0
07 04:55 W 5 7.00 Fair CLR 44.1 44.1 100% 42 30.06 0.0
07 04:35 Calm 7.00 Fair CLR 45.3 45.3 100% 30.05 0.0
07 04:15 Calm 7.00 Fair CLR 45.9 45.9 100% 30.04 0.0
07 03:55 Calm 7.00 Fair CLR 46.6 46.6 100% 30.02 0.0
07 03:35 Calm 8.00 Fair CLR 47.3 47.3 100% 30.02 0.0
07 03:15 Calm 8.00 Fair CLR 47.1 47.1 100% 30.02 0.0
07 02:55 Calm 8.00 Fair CLR 47.8 47.8 100% 30.03 0.0
07 02:35 Calm 8.00 Fair CLR 48 48 100% 30.03 0.0
07 02:15 Calm 8.00 Fair CLR 49.3 49.3 100% 30.03 0.0
07 01:55 Calm 8.00 Fair CLR 49.5 49.5 100% 30.02 0.0
07 01:35 Calm 9.00 Fair CLR 50.2 50.2 100% 30.02 0.0
07 01:15 Calm 9.00 Mostly Cloudy BKN039 51.1 51.1 100% 30.03 0.0
07 00:55 Calm 9.00 Overcast OVC038 52.7 52.3 53.1 52.2 99% 30.04 0.0
07 00:35 Calm 9.00 Overcast OVC038 52.7 51.4 96% 30.04 0.0
07 00:15 Calm 10.00 Overcast OVC037 53.1 50.9 92% 30.04 0.0
06 23:55 Calm 10.00 Overcast OVC036 52.5 51.6 97% 30.03 0.0
06 23:35 SE 3 10.00 Overcast OVC036 52.7 51.4 96% 30.03 0.0
06 23:15 Calm 9.00 Overcast OVC037 52.3 52 99% 30.03 0.0
06 22:55 Calm 9.00 Overcast BKN036 OVC044 52.2 52 99% 30.03 0.0
06 22:35 SE 3 9.00 Overcast BKN036 OVC044 52.2 51.6 98% 30.02 0.0
06 22:15 Calm 10.00 Overcast OVC036 52.3 51.6 97% 30.02 0.0
06 21:55 Calm 10.00 Overcast OVC036 52.3 51.4 97% 30.01 0.0
06 21:35 Calm 10.00 Overcast OVC036 52.3 51.4 97% 30 0.0
06 21:15 Calm 10.00 Overcast OVC035 52.5 51.4 96% 29.99 0.0
06 20:55 E 3 10.00 Overcast BKN037 OVC044 52.3 51.1 96% 29.98 0.0
06 20:35 E 3 10.00 Overcast BKN036 OVC044 52.5 51.1 95% 29.98 0.0
06 20:15 Calm 9.00 Overcast OVC036 52.5 50.9 94% 29.98 0.0
06 19:55 E 3 10.00 Overcast OVC038 52.9 50.4 91% 29.97 0.0
06 19:35 NE 3 9.00 Overcast OVC037 52.9 50 90% 29.97 0.0
06 19:15 NE 5 10.00 Overcast OVC036 52.9 50 90% 29.96 0.0
06 18:55 NE 6 10.00 Overcast OVC034 53.2 49.3 53.4 49.6 87% 29.98 0.0
06 18:35 E 7 10.00 Overcast OVC033 53.2 49.5 87% 29.98 0.0
06 18:15 E 6 10.00 Overcast OVC031 53.2 49.6 88% 29.97 0.0
06 17:55 NE 6 10.00 Overcast OVC025 52.7 49.6 89% 29.96 0.0
06 17:35 NE 8 9.00 Overcast SCT016 OVC025 52.5 49.3 89% 29.96 0.0
06 17:15 NE 6 10.00 Overcast BKN016 OVC027 52.5 49.6 90% 29.96 0.0
06 16:55 NE 6 9.00 Overcast SCT014 OVC026 52.3 49.8 91% 29.95 0.0
06 16:35 NE 8 9.00 Overcast BKN016 OVC027 52.3 49.3 89% 29.95 0.0
06 16:15 E 6 9.00 Overcast OVC016 52 49.6 92% 29.95 0.0
06 15:55 E 7 9.00 Overcast OVC012 52 49.3 91% 29.96 0.0
06 15:35 E 8 9.00 Overcast OVC011 52.2 50.2 93% 29.94 0.0
06 15:15 E 10 10.00 Overcast BKN014 OVC025 51.8 49.1 91% 29.94 0.0
06 14:55 NE 7 10.00 Overcast OVC013 51.8 50 94% 29.95 0.0
06 14:35 E 7 10.00 Mostly Cloudy BKN013 BKN019 51.4 49.3 92% 29.96 0.0
06 14:15 E 9 9.00 Overcast BKN013 OVC020 50.5 49.6 97% 29.96 0.0
06 13:55 E 9 8.00 Light Rain BKN007 OVC013 49.8 49.8 100% 47 29.96 0.0
06 13:35 E 9 6.00 Light Rain Fog/Mist OVC007 49.8 49.8 100% 47 29.97 0.0
06 13:15 E 7 6.00 Light Rain Fog/Mist OVC008 49.6 49.6 100% 47 30 0.0
06 12:55 E 8 8.00 Light Rain OVC007 49.5 49.3 52.9 49.1 99% 47 29.99 0.0
06 12:35 E 8 7.00 Light Rain SCT006 BKN016 49.6 49.6 100% 47 29.99 0.0
Date Time (cdt) Wind (mph) Vis. (mi.) Weather Sky Cond. Air Dwpt Max. Min. Relative Humidity Wind Chill (°F) Heat Index (°F) altimeter (in) sea level (mb) 1 hr 3 hr 6 hr
6 hour
Temperature (ºF) Pressure Precipitation (in)